Location: Bushey
(51.6333°N, 0.3667°W)
Time: 22:19:03
(UTC+00:00)

FALCON 9 DEB - Visible Passes

Search period start: 24 June 2021 00:00
Search period end: 04 July 2021 00:00
Orbit: 363 x 377 km, 53.0° (Epoch: 24 June)

Date Brightness Start Highest point End Pass type
(mag) Time Alt. Az. Time Alt. Az. Time Alt. Az.
24 Jun 2.7 00:01:54 10° WNW 00:05:02 88° S 00:08:09 10° ESE visible
24 Jun 4.0 01:37:47 10° W 01:40:22 24° SW 01:41:07 22° SSW visible
24 Jun 3.0 21:23:07 10° W 21:26:13 80° NNW 21:29:21 10° ENE visible
24 Jun 3.1 22:58:52 10° WNW 23:01:59 71° N 23:05:05 10° E visible
25 Jun 3.1 00:34:33 10° W 00:37:32 44° SSW 00:38:28 32° SSE visible
25 Jun 3.3 21:55:46 10° W 21:58:53 65° N 22:01:58 10° E visible
25 Jun 2.7 23:31:27 10° WNW 23:34:34 75° SSW 23:36:37 19° ESE visible
26 Jun 4.9 01:07:32 10° W 01:08:30 15° WSW 01:08:30 15° WSW visible
26 Jun 2.9 22:28:22 10° WNW 22:31:30 77° NNE 22:34:36 10° E visible
27 Jun 3.5 00:04:06 10° W 00:06:57 34° SSW 00:06:57 34° SSW visible
27 Jun 3.3 21:25:15 10° W 21:28:21 65° N 21:31:27 10° E visible
27 Jun 2.8 23:00:55 10° WNW 23:04:00 61° SSW 23:05:34 25° SE visible
28 Jun 5.4 00:37:19 10° WSW 00:37:28 11° WSW 00:37:28 11° WSW visible
28 Jun 2.8 21:57:47 10° WNW 22:00:55 87° NNE 22:04:01 10° ESE visible
28 Jun 4.0 23:33:35 10° W 23:36:09 27° SW 23:36:09 27° SW visible
29 Jun 3.1 22:30:17 10° WNW 22:33:19 49° SSW 22:34:54 23° SE visible
30 Jun 2.8 21:27:05 10° WNW 21:30:12 81° SSW 21:33:19 10° ESE visible
30 Jun 4.3 23:03:03 10° W 23:05:30 21° SW 23:05:37 21° SSW visible
01 Jul 3.5 21:59:35 10° W 22:02:31 39° SSW 22:04:26 18° SSE visible
02 Jul 4.7 22:32:30 10° W 22:34:35 17° SW 22:35:12 16° SSW visible
03 Jul 4.0 21:28:49 10° W 21:31:36 31° SSW 21:34:04 12° SSE visible
